Regional Weather Roundup
Issued by NWS Jackson, KY

Home | Current Version | Previous Version | Graphics & Text | Print | Product List | Glossary On
Versions: 1 2 3 4 5 6 7 8 9 10 11 12 13 14 15 16 17 18 19 20 21 22 23 24 25 26 27
000
ASUS43 KJKL 220710
RWRJKL

EAST KENTUCKY HOURLY WEATHER ROUNDUP
NATIONAL WEATHER SERVICE JACKSON KY
200 AM EST SUN JAN 22 2017

NOTE: "FAIR" INDICATES FEW OR NO CLOUDS BELOW 12,000 FEET WITH
NO SIGNIFICANT WEATHER AND/OR OBSTRUCTIONS TO VISIBILITY.

* THESE REPORTS ARE NOT UNDER NWS QUALITY CONTROL AND MAY NOT
  REPORT WEATHER SUCH AS PRECIPITATION AND FOG.

KYZ079-080-083-085-087-088-110-112-115-119-120-220800
...EASTERN KENTUCKY...

CITY           SKY/WX    TMP DP  RH WIND       PRES   REMARKS
JACKSON        PTCLDY    54  50  86 CALM      29.63F
LONDON         FOG       45  43  93 E3        29.61F VSB 1/4
SOMERSET*      FOG       43  43 100 CALM      29.60F VSB 3/4
MONTICELLO*    CLOUDY    45  44  97 W9        29.61F
WILLIAMSBURG*    N/A     46  46 100 E3        29.61F VSB 1/2
MIDDLESBORO*   FOG       43  43 100 CALM      29.65F VSB 1/4
HARLAN APT*    CLOUDY    46  46 100 CALM      29.65F VSB 1/4
PIKE CO APT*     N/A     51  51 100 CALM      29.65S
MOREHEAD APT*  PTSUNNY   52  48  87 CALM      29.65F
ASHLAND*       CLOUDY    48  46  93 CALM      29.62F VSB 3/4
$$

KYZ035-036-041-042-044-050-067-078-099-220800
...CENTRAL KENTUCKY...

CITY           SKY/WX    TMP DP  RH WIND       PRES   REMARKS
MT STERLING*   CLEAR     46  46 100 SE5       29.64F
FLEMING/MASON* PTCLDY    49  48  95 E5        29.64F
DANVILLE*      MOCLDY    43  43 100 SW3       29.61F FOG
LEXINGTON      PTCLDY    52  47  83 E7        29.59F
FRANKFORT      CLOUDY    46  42  86 CALM      29.58F
LOUISVILLE     PTCLDY    51  46  83 E5        29.56F
LEBANON*         N/A     52  48  87 SE7       29.58F
GLASGOW*       CLEAR     50  50 100 E7        29.54F
BOWLING GREEN  CLEAR     51  47  86 E5        29.53F
$$

KYZ091>093-OHZ055-061-077-WVZ005-015-034-035-042-220800
...SOUTHERN OHIO/WEST VIRGINIA...

CITY           SKY/WX    TMP DP  RH WIND       PRES   REMARKS
COVINGTON      CLEAR     51  50  96 S3        29.61F
COLUMBUS       CLOUDY    55  51  86 S3        29.65S
DAYTON         PTCLDY    50  49  96 S7        29.63F FOG
WILMINGTON     CLOUDY    51  50  96 S3        29.63F
HUNTINGTON     CLOUDY    53  50  89 CALM      29.63F
CHARLESTON     MOCLDY    50  49  96 CALM      29.65F
PINEVILLE*     FOG       43  41  93 MISG      29.72R VSB 1/2
BECKLEY        CLOUDY    50  48  93 SE6       29.67R
BLUEFIELD      FOG       48  47  96 CALM      29.69R VSB 1/4
LOGAN CO APT*    N/A     52  50  93 CALM      29.65R
$$

VAZ002-007-008-TNZ017-027-036-066-071-220800
...SOUTHWEST VIRGINIA/EAST TENNESSEE...

CITY           SKY/WX    TMP DP  RH WIND       PRES   REMARKS
WISE*          CLEAR     46  46 100 CALM      29.69R
JONESVILLE*    FOG       43  43 100 CALM      29.67F VSB 1/4
ABINGDON*      CLOUDY    49  48  96 CALM      29.69R
BRISTOL        CLOUDY    48  47  96 CALM      29.67R FOG
MORRISTOWN*    CLOUDY    50  50 100 CALM      29.62F
SEVIERVILLE*   PTSUNNY   46  46 100 E3        29.61F
KNOXVILLE      CLOUDY    52  50  93 NE3       29.60F
LAFOLLETTE*    FOG       45  45 100 CALM      29.64F VSB 0
OAK RIDGE      CLOUDY    52  49  89 CALM      29.62F
CROSSVILLE     CLOUDY    47  45  93 SE5       29.59F
NASHVILLE      CLOUDY    55  49  80 SE8       29.52F
$$

...KEY TO REMARKS...
VSB - VISIBILITY IN MILES
WCI - WIND CHILL INDEX
HX  - HEAT INDEX

$$




USA.gov is the U.S. government's official web portal to all federal, state and local government web resources and services.